STARLINK-4180 (53278 NORAD) Tracking and Keplerian Element Data

This shows tracking and keplerian element data for the satellite.

Feedback or suggestion? Click here.




ElementValue
Catalog53278
NameSTARLINK-4180
Epoch Orbit1081
Epoch Day270.25001157
Epoch Year2022
RAAN83.1943
Inclination53.2175
Eccentricity0.0001648
Argument of Perigee38.0175
Mean Anonmoly112.3739
Mean Motion15.63021213
Decay Rate-0.01062092
L11 53278U 22086AN 22270.25001157 -.01062092 00000+0 -12598-1 0 9994
L22 53278 53.2175 83.1943 0001648 38.0175 112.3739 15.63021213 10811

Live tracking and technical data element details for STARLINK-4180 (NORAD 53278). STARLINK-4180 can be tracked NOW for your location showing map with azimuth and elevation plus other details from your city location.

Track the satellite on the map from your city or location and see movement details for azimuth, elevation, latitude, longitude, range, height, and movement on the map or in text.







IsCatalogInMostPopularTable: catalog: 53278, numindb: 2
Update: records affected: 1



GetName: 53278 STARLINK-4180

Hit Count: updated at: Fri, 30 Sep 2022 02:13:05 GMT